TimeCDT,TemperatureF,Dew PointF,Humidity,Sea Level PressureIn,VisibilityMPH,Wind Direction,Wind SpeedMPH,Gust SpeedMPH,PrecipitationIn,Events,Conditions,WindDirDegrees,DateUTC
12:53 AM,61.0,54.0,78,30.17,10.0,West,3.5,-,N/A,,Clear,280,2013-07-02 05:53:00
1:53 AM,59.0,53.1,81,30.17,10.0,WNW,3.5,-,N/A,,Clear,300,2013-07-02 06:53:00
2:53 AM,57.0,53.1,87,30.17,10.0,West,3.5,-,N/A,,Clear,280,2013-07-02 07:53:00
3:53 AM,57.0,52.0,83,30.17,10.0,WNW,4.6,-,N/A,,Clear,290,2013-07-02 08:53:00
4:53 AM,55.9,52.0,87,30.17,10.0,WNW,4.6,-,N/A,,Clear,300,2013-07-02 09:53:00
5:53 AM,55.0,51.1,86,30.18,10.0,WNW,4.6,-,N/A,,Clear,290,2013-07-02 10:53:00
6:53 AM,55.9,52.0,87,30.19,10.0,West,4.6,-,N/A,,Clear,280,2013-07-02 11:53:00
7:53 AM,61.0,53.1,75,30.19,10.0,NW,4.6,-,N/A,,Clear,310,2013-07-02 12:53:00
9:53 AM,75.0,55.0,50,30.18,10.0,NNW,5.8,-,N/A,,Clear,340,2013-07-02 14:53:00
10:53 AM,78.1,54.0,43,30.17,10.0,NNE,8.1,-,N/A,,Clear,30,2013-07-02 15:53:00
11:53 AM,81.0,52.0,36,30.17,10.0,North,8.1,-,N/A,,Clear,10,2013-07-02 16:53:00
12:53 PM,82.9,48.0,29,30.16,10.0,North,11.5,-,N/A,,Scattered Clouds,350,2013-07-02 17:53:00
1:53 PM,82.0,48.9,31,30.14,10.0,NNE,3.5,-,N/A,,Scattered Clouds,20,2013-07-02 18:53:00
2:53 PM,82.9,48.0,29,30.13,10.0,North,9.2,-,N/A,,Mostly Cloudy,350,2013-07-02 19:53:00
3:53 PM,86.0,46.0,25,30.11,10.0,Variable,4.6,-,N/A,,Scattered Clouds,0,2013-07-02 20:53:00
4:53 PM,84.9,46.0,26,30.09,10.0,Variable,4.6,-,N/A,,Mostly Cloudy,0,2013-07-02 21:53:00
5:32 PM,80.6,53.6,39,30.13,10.0,East,12.7,-,N/A,,Partly Cloudy,100,2013-07-02 22:32:00
5:53 PM,80.1,55.0,42,30.10,10.0,ESE,10.4,-,N/A,,Mostly Cloudy,120,2013-07-02 22:53:00
6:53 PM,79.0,57.0,47,30.09,10.0,SSE,6.9,-,N/A,,Clear,160,2013-07-02 23:53:00
7:53 PM,77.0,55.0,47,30.09,10.0,East,4.6,-,N/A,,Partly Cloudy,100,2013-07-03 00:53:00
8:53 PM,75.0,55.9,51,30.07,10.0,SE,3.5,-,N/A,,Scattered Clouds,130,2013-07-03 01:53:00
9:53 PM,71.1,55.9,59,30.08,10.0,Calm,Calm,-,N/A,,Clear,0,2013-07-03 02:53:00
10:53 PM,68.0,57.9,70,30.09,10.0,Calm,Calm,-,N/A,,Partly Cloudy,0,2013-07-03 03:53:00
11:53 PM,68.0,57.0,68,30.08,10.0,Calm,Calm,-,N/A,,Overcast,0,2013-07-03 04:53:00